Time,TemperatureF,DewpointF,PressureIn,WindDirection,WindDirectionDegrees,WindSpeedMPH,WindSpeedGustMPH,Humidity,HourlyPrecipIn,Conditions,Clouds,dailyrainin,SoftwareType,DateUTC
2014-02-04 00:07:00,33.2,31.0,30.30,NNW,334,6.0,9.0,91,0.00,,,0.71,weatherlink.com 1.10,2014-02-04 05:07:00,
2014-02-04 00:22:00,33.2,31.0,30.31,North,356,3.0,7.0,91,0.00,,,0.71,weatherlink.com 1.10,2014-02-04 05:22:00,
2014-02-04 00:37:00,33.1,31.0,30.31,NNW,345,5.0,11.0,91,0.00,,,0.71,weatherlink.com 1.10,2014-02-04 05:37:00,
2014-02-04 00:52:00,33.0,31.0,30.32,NW,314,2.0,8.0,91,0.00,,,0.00,weatherlink.com 1.10,2014-02-04 05:52:00,
2014-02-04 01:07:00,33.0,31.0,30.32,NNW,330,5.0,7.0,91,0.00,,,0.00,weatherlink.com 1.10,2014-02-04 06:07:00,
2014-02-04 01:22:00,33.1,31.0,30.33,NNW,334,4.0,7.0,91,0.00,,,0.00,weatherlink.com 1.10,2014-02-04 06:22:00,
2014-02-04 01:37:00,33.1,31.0,30.33,North,354,5.0,8.0,91,0.00,,,0.00,weatherlink.com 1.10,2014-02-04 06:37:00,
2014-02-04 01:52:00,33.1,31.0,30.34,NNW,344,2.0,7.0,90,0.00,,,0.00,weatherlink.com 1.10,2014-02-04 06:52:00,
2014-02-04 02:07:00,33.1,31.0,30.33,NNE,23,3.0,9.0,90,0.00,,,0.00,weatherlink.com 1.10,2014-02-04 07:07:00,
2014-02-04 02:22:00,33.1,30.0,30.34,NNW,340,3.0,10.0,89,0.00,,,0.00,weatherlink.com 1.10,2014-02-04 07:22:00,
2014-02-04 02:37:00,33.1,30.0,30.34,NNE,30,4.0,7.0,89,0.00,,,0.00,weatherlink.com 1.10,2014-02-04 07:37:00,
2014-02-04 02:52:00,33.0,30.0,30.33,NNE,29,4.0,8.0,89,0.00,,,0.00,weatherlink.com 1.10,2014-02-04 07:52:00,
2014-02-04 03:07:00,32.9,30.0,30.34,NNW,346,2.0,6.0,89,0.00,,,0.00,weatherlink.com 1.10,2014-02-04 08:07:00,
2014-02-04 03:22:00,32.8,30.0,30.34,NNW,345,3.0,8.0,89,0.00,,,0.00,weatherlink.com 1.10,2014-02-04 08:22:00,
2014-02-04 03:37:00,32.7,30.0,30.34,North,4,1.0,6.0,89,0.00,,,0.00,weatherlink.com 1.10,2014-02-04 08:37:00,
2014-02-04 03:52:00,32.6,30.0,30.35,NNW,333,2.0,6.0,89,0.00,,,0.00,weatherlink.com 1.10,2014-02-04 08:52:00,
2014-02-04 04:07:00,32.5,30.0,30.35,North,360,3.0,4.0,89,0.00,,,0.00,weatherlink.com 1.10,2014-02-04 09:07:00,
2014-02-04 04:22:00,32.5,30.0,30.36,North,357,2.0,8.0,89,0.00,,,0.00,weatherlink.com 1.10,2014-02-04 09:22:00,
2014-02-04 04:37:00,32.4,30.0,30.36,NNE,13,3.0,5.0,89,0.00,,,0.00,weatherlink.com 1.10,2014-02-04 09:37:00,
2014-02-04 04:52:00,32.3,29.0,30.36,North,352,2.0,5.0,88,0.00,,,0.00,weatherlink.com 1.10,2014-02-04 09:52:00,
2014-02-04 05:07:00,32.2,29.0,30.37,North,5,3.0,7.0,88,0.00,,,0.00,weatherlink.com 1.10,2014-02-04 10:07:00,
2014-02-04 05:22:00,32.1,29.0,30.37,NW,307,6.0,7.0,87,0.00,,,0.00,weatherlink.com 1.10,2014-02-04 10:22:00,
2014-02-04 05:37:00,31.6,29.0,30.36,NNW,348,5.0,7.0,88,0.00,,,0.00,weatherlink.com 1.10,2014-02-04 10:37:00,
2014-02-04 05:52:00,31.3,29.0,30.38,NNW,330,5.0,10.0,89,0.00,,,0.00,weatherlink.com 1.10,2014-02-04 10:52:00,
2014-02-04 06:07:00,30.9,28.0,30.38,North,3,3.0,9.0,88,0.00,,,0.00,weatherlink.com 1.10,2014-02-04 11:07:00,
2014-02-04 06:22:00,30.8,28.0,30.39,NNW,339,3.0,8.0,88,0.00,,,0.00,weatherlink.com 1.10,2014-02-04 11:22:00,
2014-02-04 06:37:00,30.6,28.0,30.39,North,350,5.0,7.0,88,0.00,,,0.00,weatherlink.com 1.10,2014-02-04 11:37:00,
2014-02-04 06:52:00,30.6,28.0,30.39,NNW,335,3.0,4.0,88,0.00,,,0.00,weatherlink.com 1.10,2014-02-04 11:52:00,
2014-02-04 07:07:00,30.5,27.0,30.40,North,360,10.0,10.0,88,0.00,,,0.00,weatherlink.com 1.10,2014-02-04 12:07:00,
2014-02-04 07:22:00,30.5,27.0,30.40,NNW,348,1.0,9.0,88,0.00,,,0.00,weatherlink.com 1.10,2014-02-04 12:22:00,
2014-02-04 07:37:00,30.5,27.0,30.40,NNW,332,4.0,10.0,88,0.00,,,0.00,weatherlink.com 1.10,2014-02-04 12:37:00,
2014-02-04 07:52:00,30.6,28.0,30.41,North,359,4.0,7.0,88,0.00,,,0.00,weatherlink.com 1.10,2014-02-04 12:52:00,
2014-02-04 08:08:00,30.7,27.0,30.41,North,11,3.0,8.0,87,0.00,,,0.00,weatherlink.com 1.10,2014-02-04 13:08:00,
2014-02-04 08:23:00,30.9,28.0,30.42,NNW,333,3.0,7.0,87,0.00,,,0.00,weatherlink.com 1.10,2014-02-04 13:23:00,
2014-02-04 08:38:00,31.2,28.0,30.42,North,355,3.0,5.0,87,0.00,,,0.00,weatherlink.com 1.10,2014-02-04 13:38:00,
2014-02-04 08:53:00,31.3,27.0,30.42,NE,37,3.0,8.0,85,0.00,,,0.00,weatherlink.com 1.10,2014-02-04 13:53:00,
2014-02-04 09:08:00,31.5,27.0,30.43,NNE,16,5.0,9.0,84,0.00,,,0.00,weatherlink.com 1.10,2014-02-04 14:08:00,
2014-02-04 09:23:00,31.8,28.0,30.45,NNW,337,6.0,8.0,84,0.00,,,0.00,weatherlink.com 1.10,2014-02-04 14:23:00,
2014-02-04 09:38:00,32.0,28.0,30.46,North,356,2.0,7.0,84,0.00,,,0.00,weatherlink.com 1.10,2014-02-04 14:38:00,
2014-02-04 09:53:00,32.1,28.0,30.45,NNW,334,2.0,5.0,85,0.00,,,0.00,weatherlink.com 1.10,2014-02-04 14:53:00,
2014-02-04 10:08:00,32.0,28.0,30.45,North,353,3.0,5.0,84,0.00,,,0.00,weatherlink.com 1.10,2014-02-04 15:08:00,
2014-02-04 10:23:00,32.0,28.0,30.44,NE,47,0.0,4.0,84,0.00,,,0.00,weatherlink.com 1.10,2014-02-04 15:23:00,
2014-02-04 10:38:00,32.3,28.0,30.44,NE,34,2.0,4.0,85,0.00,,,0.00,weatherlink.com 1.10,2014-02-04 15:38:00,
2014-02-04 10:53:00,32.4,28.0,30.44,NE,56,3.0,5.0,84,0.00,,,0.00,weatherlink.com 1.10,2014-02-04 15:53:00,
2014-02-04 11:08:00,32.7,28.0,30.45,NE,47,3.0,5.0,84,0.00,,,0.00,weatherlink.com 1.10,2014-02-04 16:08:00,
2014-02-04 11:23:00,32.7,28.0,30.46,WNW,301,1.0,3.0,84,0.00,,,0.00,weatherlink.com 1.10,2014-02-04 16:23:00,
2014-02-04 11:38:00,32.7,28.0,30.45,NW,326,0.0,5.0,83,0.00,,,0.00,weatherlink.com 1.10,2014-02-04 16:38:00,
2014-02-04 11:53:00,32.8,28.0,30.44,NNE,26,0.0,4.0,83,0.00,,,0.00,weatherlink.com 1.10,2014-02-04 16:53:00,
2014-02-04 12:08:00,32.9,28.0,30.43,NW,312,0.0,3.0,83,0.00,,,0.00,weatherlink.com 1.10,2014-02-04 17:08:00,
2014-02-04 12:23:00,33.3,28.0,30.42,NNW,330,0.0,5.0,82,0.00,,,0.00,weatherlink.com 1.10,2014-02-04 17:23:00,
2014-02-04 12:53:00,34.5,29.0,30.39,NNW,342,4.0,7.0,81,0.00,,,0.00,weatherlink.com 1.10,2014-02-04 17:53:00,
2014-02-04 13:08:00,35.1,30.0,30.38,North,352,3.0,8.0,81,0.00,,,0.00,weatherlink.com 1.10,2014-02-04 18:08:00,
2014-02-04 13:23:00,35.4,30.0,30.38,NNW,342,2.0,8.0,82,0.00,,,0.00,weatherlink.com 1.10,2014-02-04 18:23:00,
2014-02-04 13:38:00,35.2,30.0,30.38,NE,47,7.0,9.0,80,0.00,,,0.00,weatherlink.com 1.10,2014-02-04 18:38:00,
2014-02-04 14:08:00,35.3,30.0,30.37,NE,49,0.0,6.0,81,0.00,,,0.00,weatherlink.com 1.10,2014-02-04 19:08:00,
2014-02-04 14:23:00,35.5,30.0,30.37,ENE,58,3.0,6.0,81,0.00,,,0.00,weatherlink.com 1.10,2014-02-04 19:23:00,
2014-02-04 14:38:00,35.1,30.0,30.37,ENE,58,7.0,7.0,81,0.00,,,0.00,weatherlink.com 1.10,2014-02-04 19:38:00,
2014-02-04 14:53:00,34.7,30.0,30.37,NNE,27,4.0,6.0,82,0.00,,,0.00,weatherlink.com 1.10,2014-02-04 19:53:00,
2014-02-04 15:08:00,34.5,30.0,30.36,NE,45,4.0,7.0,83,0.00,,,0.00,weatherlink.com 1.10,2014-02-04 20:08:00,
2014-02-04 15:23:00,33.9,30.0,30.36,NE,56,7.0,8.0,84,0.00,,,0.00,weatherlink.com 1.10,2014-02-04 20:23:00,
2014-02-04 15:38:00,33.5,30.0,30.35,ENE,61,7.0,11.0,85,0.00,,,0.00,weatherlink.com 1.10,2014-02-04 20:38:00,
2014-02-04 15:53:00,33.4,29.0,30.34,NNE,27,6.0,10.0,85,0.00,,,0.00,weatherlink.com 1.10,2014-02-04 20:53:00,
2014-02-04 16:08:00,33.3,29.0,30.34,ENE,59,6.0,9.0,85,0.00,,,0.00,weatherlink.com 1.10,2014-02-04 21:08:00,
2014-02-04 16:23:00,33.3,30.0,30.34,NE,53,3.0,8.0,86,0.00,,,0.00,weatherlink.com 1.10,2014-02-04 21:23:00,
2014-02-04 16:38:00,33.0,29.0,30.34,ENE,73,4.0,9.0,86,0.00,,,0.00,weatherlink.com 1.10,2014-02-04 21:38:00,
2014-02-04 16:53:00,33.1,30.0,30.34,NNE,32,4.0,7.0,88,0.00,,,0.00,weatherlink.com 1.10,2014-02-04 21:53:00,
2014-02-04 17:08:00,33.3,30.0,30.33,East,80,4.0,8.0,88,0.00,,,0.00,weatherlink.com 1.10,2014-02-04 22:08:00,
2014-02-04 17:23:00,33.4,31.0,30.33,East,79,3.0,8.0,89,0.00,,,0.00,weatherlink.com 1.10,2014-02-04 22:23:00,
2014-02-04 17:38:00,33.7,31.0,30.33,ENE,70,5.0,5.0,90,0.00,,,0.00,weatherlink.com 1.10,2014-02-04 22:38:00,
2014-02-04 17:53:00,33.9,31.0,30.34,ENE,69,3.0,5.0,90,0.00,,,0.00,weatherlink.com 1.10,2014-02-04 22:53:00,
2014-02-04 18:08:00,34.2,32.0,30.34,NE,40,0.0,5.0,91,0.00,,,0.00,weatherlink.com 1.10,2014-02-04 23:08:00,
2014-02-04 18:23:00,34.4,32.0,30.34,NNW,347,2.0,5.0,91,0.00,,,0.00,weatherlink.com 1.10,2014-02-04 23:23:00,
2014-02-04 18:38:00,34.7,32.0,30.34,NE,42,2.0,4.0,91,0.00,,,0.00,weatherlink.com 1.10,2014-02-04 23:38:00,
2014-02-04 18:53:00,34.9,33.0,30.32,NNW,340,3.0,6.0,91,0.00,,,0.00,weatherlink.com 1.10,2014-02-04 23:53:00,
2014-02-04 19:08:00,35.3,33.0,30.32,ENE,57,4.0,6.0,91,0.00,,,0.00,weatherlink.com 1.10,2014-02-05 00:08:00,
2014-02-04 19:23:00,35.6,33.0,30.32,ENE,66,2.0,8.0,90,0.00,,,0.00,weatherlink.com 1.10,2014-02-05 00:23:00,
2014-02-04 19:38:00,35.8,33.0,30.32,NE,56,3.0,7.0,90,0.00,,,0.00,weatherlink.com 1.10,2014-02-05 00:38:00,
2014-02-04 19:53:00,36.0,33.0,30.32,ENE,57,6.0,8.0,90,0.00,,,0.00,weatherlink.com 1.10,2014-02-05 00:53:00,
2014-02-04 20:08:00,36.1,34.0,30.33,NE,46,5.0,7.0,90,0.00,,,0.00,weatherlink.com 1.10,2014-02-05 01:08:00,
2014-02-04 20:23:00,35.9,33.0,30.30,NE,51,3.0,8.0,90,0.00,,,0.00,weatherlink.com 1.10,2014-02-05 01:23:00,
2014-02-04 20:38:00,35.9,33.0,30.30,NE,39,4.0,9.0,90,0.00,,,0.00,weatherlink.com 1.10,2014-02-05 01:38:00,
2014-02-04 20:53:00,35.9,33.0,30.28,ENE,68,6.0,11.0,89,0.00,,,0.00,weatherlink.com 1.10,2014-02-05 01:53:00,
2014-02-04 21:08:00,35.9,33.0,30.28,NE,47,9.0,9.0,90,0.00,,,0.00,weatherlink.com 1.10,2014-02-05 02:08:00,
2014-02-04 21:23:00,35.6,33.0,30.26,NE,49,6.0,10.0,91,0.00,,,0.00,weatherlink.com 1.10,2014-02-05 02:23:00,
2014-02-04 21:38:00,35.5,33.0,30.26,ENE,57,7.0,13.0,92,0.00,,,0.00,weatherlink.com 1.10,2014-02-05 02:38:00,
2014-02-04 21:53:00,35.4,33.0,30.25,ENE,59,6.0,11.0,92,0.00,,,0.00,weatherlink.com 1.10,2014-02-05 02:53:00,
2014-02-04 22:09:00,35.3,34.0,30.24,ENE,57,10.0,12.0,93,0.00,,,0.00,weatherlink.com 1.10,2014-02-05 03:09:00,
2014-02-04 22:24:00,35.4,34.0,30.24,ENE,60,4.0,9.0,94,0.01,,,0.01,weatherlink.com 1.10,2014-02-05 03:24:00,
2014-02-04 22:39:00,35.5,34.0,30.22,ENE,60,5.0,9.0,94,0.02,,,0.02,weatherlink.com 1.10,2014-02-05 03:39:00,
2014-02-04 22:54:00,35.6,34.0,30.21,ENE,75,6.0,10.0,95,0.03,,,0.03,weatherlink.com 1.10,2014-02-05 03:54:00,
2014-02-04 23:09:00,35.9,35.0,30.20,NE,46,7.0,11.0,95,0.04,,,0.04,weatherlink.com 1.10,2014-02-05 04:09:00,
2014-02-04 23:24:00,36.0,35.0,30.18,ENE,59,6.0,10.0,95,0.05,,,0.06,weatherlink.com 1.10,2014-02-05 04:24:00,
2014-02-04 23:39:00,36.4,35.0,30.16,ENE,59,3.0,10.0,96,0.05,,,0.07,weatherlink.com 1.10,2014-02-05 04:39:00,
2014-02-04 23:54:00,36.6,36.0,30.14,ENE,68,5.0,10.0,96,0.04,,,0.07,weatherlink.com 1.10,2014-02-05 04:54:00,